• In Austria
  • List of Countries
  • For 7 days
  • Water Temperature
  • Satellite Maps
  • Weather Map
  • News
  • Weather Widgets
  • user-avatar
    Login

    Hourly Weather Barra

    Today, 25 February, Sunday

    Time Temperature Precipitation Wind Pressure Humidity
    00:00 +25°C° 0.8 mm 4 mps 746 mmHg 95%
    01:00 +25°C° 0.8 mm 4 mps 745 mmHg 95%
    02:00 +25°C° 0.2 mm 3 mps 745 mmHg 95%
    03:00 +25°C° 0.2 mm 3 mps 745 mmHg 95%
    04:00 +25°C° 0 mm 2 mps 744 mmHg 95%
    05:00 +25°C° 0.1 mm 2 mps 744 mmHg 94%
    06:00 +25°C° 0.1 mm 2 mps 745 mmHg 93%
    07:00 +25°C° 0.1 mm 2 mps 745 mmHg 93%
    08:00 +28°C° 0 mm 2 mps 745 mmHg 82%
    09:00 +30°C° 0 mm 2 mps 745 mmHg 72%
    10:00 +34°C° 0 mm 2 mps 745 mmHg 62%
    11:00 +34°C° 0.9 mm 2 mps 745 mmHg 63%
    12:00 +34°C° 0.9 mm 3 mps 744 mmHg 65%
    13:00 +34°C° 0.9 mm 3 mps 744 mmHg 66%
    14:00 +33°C° 1.6 mm 4 mps 743 mmHg 71%
    15:00 +33°C° 1.6 mm 4 mps 743 mmHg 76%
    16:00 +30°C° 0 mm 3 mps 743 mmHg 87%
    17:00 +29°C° 0.7 mm 2 mps 743 mmHg 89%
    18:00 +28°C° 0.7 mm 2 mps 743 mmHg 91%
    19:00 +27°C° 0.7 mm 2 mps 743 mmHg 93%
    20:00 +27°C° 1.3 mm 2 mps 743 mmHg 93%
    21:00 +26°C° 1.3 mm 3 mps 744 mmHg 94%
    22:00 +26°C° 0 mm 3 mps 744 mmHg 94%
    23:00 +26°C° 0.7 mm 3 mps 744 mmHg 94%

    Tomorrow, 26 February, Monday

    Time Temperature Precipitation Wind Pressure Humidity
    00:00 +26°C° 0.7 mm 3 mps 744 mmHg 94%
    01:00 +25°C° 0.7 mm 3 mps 744 mmHg 94%
    02:00 +25°C° 0 mm 3 mps 743 mmHg 93%
    03:00 +25°C° 0 mm 3 mps 743 mmHg 93%
    04:00 +25°C° 0 mm 3 mps 743 mmHg 93%
    05:00 +25°C° 0 mm 3 mps 743 mmHg 92%
    06:00 +25°C° 0 mm 2 mps 743 mmHg 91%
    07:00 +25°C° 0 mm 2 mps 743 mmHg 90%
    08:00 +28°C° 0 mm 2 mps 744 mmHg 80%
    09:00 +30°C° 0 mm 2 mps 744 mmHg 70%
    10:00 +34°C° 0 mm 2 mps 744 mmHg 60%
    11:00 +35°C° 0.2 mm 2 mps 744 mmHg 57%
    12:00 +36°C° 0.2 mm 3 mps 743 mmHg 53%
    13:00 +37°C° 0.2 mm 3 mps 743 mmHg 50%
    14:00 +37°C° 0.3 mm 3 mps 743 mmHg 51%
    15:00 +37°C° 0.3 mm 3 mps 742 mmHg 52%
    16:00 +37°C° 0.3 mm 3 mps 742 mmHg 53%
    17:00 +34°C° 0.3 mm 3 mps 742 mmHg 62%
    18:00 +31°C° 0.3 mm 3 mps 743 mmHg 72%
    19:00 +29°C° 0.3 mm 3 mps 743 mmHg 81%
    20:00 +28°C° 0.4 mm 3 mps 743 mmHg 84%
    21:00 +28°C° 0.4 mm 3 mps 744 mmHg 86%
    22:00 +27°C° 0.4 mm 3 mps 744 mmHg 88%
    23:00 +27°C° 0.2 mm 3 mps 744 mmHg 88%

    Day after tomorrow, 27 February, Tuesday

    Time Temperature Precipitation Wind Pressure Humidity
    00:00 +27°C° 0.2 mm 3 mps 744 mmHg 87%
    01:00 +26°C° 0.2 mm 2 mps 744 mmHg 86%
    02:00 +26°C° 0 mm 2 mps 743 mmHg 86%
    03:00 +26°C° 0 mm 2 mps 743 mmHg 85%
    04:00 +26°C° 0 mm 2 mps 743 mmHg 85%
    05:00 +26°C° 0.1 mm 2 mps 743 mmHg 84%
    06:00 +26°C° 0.1 mm 2 mps 744 mmHg 84%
    07:00 +26°C° 0.1 mm 2 mps 744 mmHg 84%
    08:00 +29°C° 0.1 mm 1 mps 744 mmHg 74%
    09:00 +32°C° 0.1 mm 1 mps 744 mmHg 65%
    10:00 +33°C° 0.1 mm 0 mps 745 mmHg 55%
    11:00 +36°C° 0.3 mm 1 mps 744 mmHg 52%
    12:00 +39°C° 0.3 mm 1 mps 744 mmHg 49%
    13:00 +40°C° 0.3 mm 2 mps 744 mmHg 46%
    14:00 +38°C° 0.4 mm 2 mps 743 mmHg 51%
    15:00 +36°C° 0.4 mm 3 mps 743 mmHg 56%
    16:00 +35°C° 0.4 mm 3 mps 743 mmHg 61%
    17:00 +33°C° 0.3 mm 3 mps 743 mmHg 70%
    18:00 +30°C° 0.3 mm 2 mps 743 mmHg 80%
    19:00 +28°C° 0.3 mm 2 mps 744 mmHg 89%
    20:00 +28°C° 0.1 mm 2 mps 744 mmHg 89%
    21:00 +28°C° 0.1 mm 2 mps 745 mmHg 90%
    22:00 +27°C° 0.1 mm 2 mps 745 mmHg 91%
    23:00 +27°C° 0.3 mm 2 mps 745 mmHg 90%

    28 February, Wednesday

    Time Temperature Precipitation Wind Pressure Humidity
    00:00 +27°C° 0.3 mm 2 mps 744 mmHg 90%
    01:00 +27°C° 0.3 mm 1 mps 744 mmHg 89%
    02:00 +27°C° 1.1 mm 1 mps 744 mmHg 90%
    03:00 +27°C° 1.1 mm 1 mps 744 mmHg 90%
    04:00 +27°C° 1.1 mm 1 mps 744 mmHg 90%
    05:00 +27°C° 2.4 mm 1 mps 744 mmHg 91%
    06:00 +27°C° 2.4 mm 1 mps 745 mmHg 91%
    07:00 +27°C° 2.4 mm 1 mps 745 mmHg 92%
    08:00 +27°C° 1.7 mm 1 mps 745 mmHg 92%
    09:00 +27°C° 1.7 mm 1 mps 746 mmHg 93%
    10:00 +27°C° 1.7 mm 1 mps 746 mmHg 94%
    11:00 +28°C° 0.7 mm 1 mps 746 mmHg 90%
    12:00 +29°C° 0.7 mm 1 mps 745 mmHg 87%
    13:00 +30°C° 0.7 mm 1 mps 745 mmHg 83%
    14:00 +30°C° 1.4 mm 1 mps 745 mmHg 84%
    15:00 +30°C° 1.4 mm 1 mps 744 mmHg 85%
    16:00 +29°C° 1.4 mm 1 mps 744 mmHg 86%
    17:00 +29°C° 0.9 mm 1 mps 744 mmHg 89%
    18:00 +28°C° 0.9 mm 1 mps 745 mmHg 92%
    19:00 +27°C° 0.9 mm 1 mps 745 mmHg 94%
    20:00 +26°C° 0.2 mm 1 mps 746 mmHg 94%
    21:00 +26°C° 0.2 mm 1 mps 746 mmHg 95%
    22:00 +26°C° 0.2 mm 1 mps 746 mmHg 95%
    23:00 +26°C° 0.1 mm 1 mps 746 mmHg 96%

    1 March, Thursday

    Time Temperature Precipitation Wind Pressure Humidity
    00:00 +26°C° 0.1 mm 1 mps 745 mmHg 96%
    01:00 +25°C° 0.1 mm 1 mps 745 mmHg 97%
    02:00 +25°C° 0.7 mm 1 mps 745 mmHg 96%
    03:00 +25°C° 0.7 mm 1 mps 744 mmHg 96%
    04:00 +25°C° 0.7 mm 1 mps 744 mmHg 96%
    05:00 +25°C° 1.1 mm 1 mps 745 mmHg 96%
    06:00 +25°C° 1.1 mm 1 mps 745 mmHg 95%
    07:00 +26°C° 1.1 mm 2 mps 746 mmHg 94%
    08:00 +27°C° 1.3 mm 2 mps 746 mmHg 91%
    09:00 +28°C° 1.3 mm 2 mps 746 mmHg 87%
    10:00 +30°C° 1.3 mm 2 mps 746 mmHg 83%
    11:00 +30°C° 1.3 mm 2 mps 746 mmHg 82%
    12:00 +30°C° 1.3 mm 2 mps 745 mmHg 81%
    13:00 +30°C° 1.3 mm 3 mps 744 mmHg 80%
    14:00 +30°C° 0.9 mm 3 mps 744 mmHg 79%
    15:00 +30°C° 0.9 mm 3 mps 744 mmHg 79%
    16:00 +30°C° 0.9 mm 3 mps 743 mmHg 78%
    17:00 +29°C° 0.8 mm 2 mps 744 mmHg 82%
    18:00 +28°C° 0.8 mm 2 mps 744 mmHg 86%
    19:00 +27°C° 0.8 mm 2 mps 745 mmHg 90%
    20:00 +26°C° 0.8 mm 2 mps 745 mmHg 92%
    21:00 +26°C° 0.8 mm 1 mps 746 mmHg 94%
    22:00 +26°C° 0.8 mm 1 mps 746 mmHg 96%
    23:00 +26°C° 0.6 mm 1 mps 746 mmHg 96%

    2 March, Friday

    Time Temperature Precipitation Wind Pressure Humidity
    00:00 +26°C° 0.6 mm 1 mps 745 mmHg 97%
    01:00 +25°C° 0.6 mm 1 mps 745 mmHg 97%
    02:00 +25°C° 0.6 mm 1 mps 745 mmHg 97%
    03:00 +25°C° 0.6 mm 1 mps 745 mmHg 97%
    04:00 +23°C° 0.6 mm 0 mps 744 mmHg 98%
    05:00 +25°C° 0.5 mm 1 mps 745 mmHg 97%
    06:00 +25°C° 0.5 mm 1 mps 745 mmHg 97%
    07:00 +26°C° 0.5 mm 1 mps 746 mmHg 97%
    08:00 +27°C° 0.3 mm 1 mps 746 mmHg 92%
    09:00 +28°C° 0.3 mm 1 mps 746 mmHg 88%
    10:00 +29°C° 0.3 mm 1 mps 746 mmHg 84%
    11:00 +29°C° 0.4 mm 1 mps 746 mmHg 81%
    12:00 +29°C° 0.4 mm 1 mps 745 mmHg 79%
    13:00 +30°C° 0.4 mm 1 mps 745 mmHg 77%
    14:00 +29°C° 0.2 mm 1 mps 744 mmHg 80%
    15:00 +29°C° 0.2 mm 2 mps 744 mmHg 83%
    16:00 +28°C° 0.2 mm 2 mps 744 mmHg 85%
    17:00 +27°C° 0.2 mm 1 mps 744 mmHg 89%
    18:00 +27°C° 0.2 mm 1 mps 745 mmHg 92%
    19:00 +26°C° 0.2 mm 1 mps 745 mmHg 96%
    20:00 +26°C° 0.6 mm 1 mps 746 mmHg 96%
    21:00 +26°C° 0.6 mm 1 mps 746 mmHg 97%
    22:00 +26°C° 0.6 mm 1 mps 746 mmHg 97%
    23:00 +25°C° 0.6 mm 1 mps 746 mmHg 97%
    Show more